Terug naar catalogus

SL-14 R/B

ActiefPO
NORAD 15370·ROCKET BODY·🇷🇺 Russia

Gelanceerd Oct 18, 1984 vanaf Plesetsk Cosmodrome

Loading…

Volgende Passages (komende 24 uur)

TLE

VersSource: Space-Track

Epoch: Sep 14, 2026, 11:25 UTC

1 15370U 84111B   26257.47594993  .00000287  00000-0  29800-4 0  9993
2 15370  82.5121  78.7761 0021457  69.4886 290.8631 14.86195640243915

Volg SL-14 R/B in realtime met AllMySat

Download on the App Store